This is the latest recevied weather packets stored in our database for station/object IR3AS. If no packets are shown the sender has not sent any weather packets the latest 10 day(s).
| Time | Temp. | Humidity | Pressure | Rain* | Wind** | Luminosity | Snow |
|---|---|---|---|---|---|---|---|
| 1787477411 | 12.78° C | 84% | 867 hPa | 0 mm | - | - | - |
| 1787477110 | 12.22° C | 84% | 867.6 hPa | 0 mm | - | - | - |
| 1787476810 | 12.22° C | 85% | 867.3 hPa | 0 mm | - | - | - |
| 1787476510 | 11.67° C | 86% | 867.8 hPa | 0 mm | - | - | - |
| 1787476210 | 11.11° C | 86% | 869.7 hPa | 0 mm | - | - | - |
| 1787475910 | 11.11° C | 87% | 869.6 hPa | 0 mm | - | - | - |
| 1787475643 | 11.11° C | 86% | 870.7 hPa | 0 mm | - | - | - |
| 1787475611 | 11.11° C | 86% | 870.7 hPa | 0 mm | - | - | - |
| 1787475310 | 11.67° C | 87% | 870.9 hPa | 0 mm | - | - | - |
| 1787475010 | 11.67° C | 87% | 871.2 hPa | 0 mm | - | - | - |
| 1787474764 | 11.67° C | 88% | 871.4 hPa | 0 mm | - | - | - |
| 1787474711 | 11.67° C | 88% | 871.4 hPa | 0 mm | - | - | - |
| 1787474411 | 11.67° C | 89% | 871.4 hPa | 0 mm | - | - | - |
| 1787474111 | 11.67° C | 89% | 870.9 hPa | 0 mm | - | - | - |
| 1787473811 | 12.22° C | 90% | 867.3 hPa | 0 mm | - | - | - |
| 1787473511 | 12.22° C | 90% | 863 hPa | 0 mm | - | - | - |
| 1787473211 | 12.22° C | 90% | 869.3 hPa | 0 mm | - | - | - |
| 1787472911 | 11.67° C | 91% | 867.5 hPa | 0 mm | - | - | - |
| 1787472611 | 11.67° C | 92% | 850.1 hPa | 0 mm | - | - | - |
| 1787472311 | 11.11° C | 92% | 865.9 hPa | 0 mm | - | - | - |
| 1787472011 | 11.11° C | 92% | 854.4 hPa | 0 mm | - | - | - |
| 1787471711 | 10.56° C | 92% | 858.3 hPa | 0 mm | - | - | - |
| 1787471411 | 10° C | 93% | 865.2 hPa | 0 mm | - | - | - |
| 1787471111 | 10° C | 93% | 868.5 hPa | 0 mm | - | - | - |
| 1787470811 | 10° C | 92% | 868 hPa | 0 mm | - | - | - |
* Rain latest hour (hover to see other rain measurements)
** Current wind speed in m/s (hover to see current wind gust speed)